User: anonymous
Location: Caltech
(34.1382°N, 118.1253°W)
Time: 16:57:06
(UTC-07:00)
Language:

Oscar 10/S400 - Orbit

View from above orbital plane
View from above orbital plane
View from above satellite
View from above satellite

Ground track
Ground track

The orbit data is extracted from the following two-line orbital elements,

1 14129U 83058B   14272.63902635  .00000047  00000-0  00000+0 0  2264
2 14129 026.0917 198.0073 6030429 033.8609 117.1732 02.05868433207397
Epoch (UTC): 29 September 2014 15:20:11
Eccentricity: 0.6030429
inclination: 26.0917°
perigee height: 3983 km
apogee height: 35464 km
right ascension of ascending node: 198.0073°
argument of perigee: 33.8609°
revolutions per day: 2.05868433
mean anomaly at epoch: 117.1732°
orbit number at epoch: 20739

The dashed part of the orbit path shows where the satellite is in the earth's shadow,  

DLR